Погода в Эрли-Бич

Австралия     20°16′08″S   148°43′09″E
темп.,
°C
ветер,
м/с
пор.,
м/с
влажн.,
%
обл.,
%
осадки,
мм/ч
давл.,
гПа
погр.,
м
30 ноября, вт
вт3001:00+26в578220 0.9 1011658
04:00+26в677940 3.1 1010835
07:00+27в567414 0.2 1011831
10:00+28в44656 0.3 1011877
13:00+28в336787 0.0 1009633
16:00+28всв33696 0.0 1008625
19:00+27всв34765 0.0 1009443
22:00+26вюв2282100 0.1 1010404
1 декабря, ср
ср101:00+26ююв228481 0.9 1009171
04:00+26юв238297 1.5 1009459
07:00+26юв238182 0.1 1010530
10:00+27вюв32745 0.3 1011656
13:00+27в33752 0.5 1009493
16:00+28в33747 0.6 1008598
19:00+27в33770 0.0 1010462
22:00+27в348051 0.3 1011434
2 декабря, чт
чт201:00+26в338013 0.7 1010408
04:00+26ююв23835 0.3 1010350
07:00+26ююв34823 0.0 1012458
10:00+28вюв44732 0.0 1012635
13:00+28вюв55704 0.0 1010611
16:00+28в55719 0.0 1009542
19:00+27вюв457864 0.0 1010467
22:00+27вюв34795 0.0 1011490
3 декабря, пт
пт301:00+26юв348025 0.0 1010543
04:00+26юв458010 0.0 1010598
07:00+27юв577811 0.0 1012899
10:00+28юв67721 0.1 1013901
13:00+28юв89720 0.0 1011863
16:00+28вюв1012760 0.0 1009756
19:00+27юв811804 0.0 1011850
22:00+27юв898150 0.0 1012884
4 декабря, сб
сб401:00+27юв797375 0.1 10101068
04:00+27юв797121 0.1 10101091
07:00+27юв897250 0.0 10111141
10:00+27юв896847 0.0 10121228
13:00+27юв89671 0.0 1010949
16:00+27юв78670 0.0 1008798
19:00+26юв68670 0.0 1009656
22:00+26юв67690 0.0 1010676